• In Hungary
  • List of Countries
  • For 7 days
  • Water Temperature
  • Satellite Maps
  • Weather Map
  • News
  • Weather Widgets
  • user-avatar
    Login

    Hourly Weather Bolshaya Zvanica

    Today, 20 May, Sunday

    Time Temperature Precipitation Wind Pressure Humidity
    00:00 +7°C° 0.3 mm 3 mps 748 mmHg 83%
    01:00 +7°C° 0.3 mm 3 mps 748 mmHg 83%
    02:00 +6°C° 0 mm 2 mps 748 mmHg 86%
    03:00 +6°C° 0.3 mm 2 mps 749 mmHg 86%
    04:00 +5°C° 0.3 mm 3 mps 749 mmHg 85%
    05:00 +5°C° 0.3 mm 3 mps 750 mmHg 84%
    06:00 +7°C° 0 mm 3 mps 750 mmHg 76%
    07:00 +8°C° 0 mm 3 mps 751 mmHg 68%
    08:00 +10°C° 0 mm 3 mps 751 mmHg 61%
    09:00 +11°C° 0 mm 3 mps 752 mmHg 53%
    10:00 +13°C° 0 mm 3 mps 752 mmHg 45%
    11:00 +14°C° 0 mm 3 mps 752 mmHg 38%
    12:00 +16°C° 0 mm 3 mps 752 mmHg 36%
    13:00 +17°C° 0 mm 3 mps 752 mmHg 35%
    14:00 +18°C° 0 mm 3 mps 752 mmHg 34%
    15:00 +18°C° 0 mm 3 mps 752 mmHg 35%
    16:00 +18°C° 0 mm 3 mps 753 mmHg 37%
    17:00 +18°C° 0 mm 2 mps 753 mmHg 39%
    18:00 +16°C° 0 mm 2 mps 753 mmHg 47%
    19:00 +14°C° 0 mm 1 mps 753 mmHg 56%
    20:00 +12°C° 0 mm 1 mps 754 mmHg 64%
    21:00 +11°C° 0 mm 1 mps 754 mmHg 66%
    22:00 +10°C° 0 mm 1 mps 754 mmHg 68%
    23:00 +9°C° 0 mm 1 mps 755 mmHg 71%

    Tomorrow, 21 May, Monday

    Time Temperature Precipitation Wind Pressure Humidity
    00:00 +9°C° 0 mm 1 mps 755 mmHg 72%
    01:00 +8°C° 0 mm 1 mps 756 mmHg 73%
    02:00 +8°C° 0 mm 1 mps 756 mmHg 74%
    03:00 +8°C° 0 mm 1 mps 756 mmHg 73%
    04:00 +9°C° 0 mm 1 mps 756 mmHg 71%
    05:00 +10°C° 0 mm 1 mps 757 mmHg 70%
    06:00 +12°C° 0 mm 1 mps 757 mmHg 62%
    07:00 +15°C° 0 mm 1 mps 757 mmHg 54%
    08:00 +18°C° 0 mm 1 mps 758 mmHg 46%
    09:00 +20°C° 0 mm 1 mps 758 mmHg 43%
    10:00 +21°C° 0 mm 1 mps 758 mmHg 39%
    11:00 +23°C° 0 mm 1 mps 758 mmHg 35%
    12:00 +23°C° 0 mm 1 mps 757 mmHg 34%
    13:00 +23°C° 0 mm 2 mps 757 mmHg 34%
    14:00 +23°C° 0 mm 2 mps 757 mmHg 33%
    15:00 +23°C° 0 mm 2 mps 757 mmHg 36%
    16:00 +23°C° 0 mm 2 mps 757 mmHg 39%
    17:00 +21°C° 0 mm 2 mps 756 mmHg 41%
    18:00 +19°C° 0 mm 2 mps 757 mmHg 50%
    19:00 +18°C° 0 mm 1 mps 757 mmHg 59%
    20:00 +15°C° 0 mm 1 mps 757 mmHg 68%
    21:00 +14°C° 0 mm 1 mps 757 mmHg 70%
    22:00 +13°C° 0 mm 1 mps 757 mmHg 73%
    23:00 +12°C° 0 mm 1 mps 757 mmHg 75%

    Day after tomorrow, 22 May, Tuesday

    Time Temperature Precipitation Wind Pressure Humidity
    00:00 +11°C° 0 mm 1 mps 757 mmHg 77%
    01:00 +11°C° 0 mm 1 mps 757 mmHg 78%
    02:00 +10°C° 0 mm 1 mps 757 mmHg 80%
    03:00 +11°C° 0 mm 1 mps 757 mmHg 78%
    04:00 +11°C° 0 mm 1 mps 757 mmHg 77%
    05:00 +12°C° 0 mm 2 mps 757 mmHg 75%
    06:00 +14°C° 0 mm 2 mps 757 mmHg 66%
    07:00 +16°C° 0 mm 3 mps 757 mmHg 57%
    08:00 +18°C° 0 mm 4 mps 757 mmHg 48%
    09:00 +19°C° 0 mm 4 mps 757 mmHg 45%
    10:00 +20°C° 0 mm 4 mps 756 mmHg 42%
    11:00 +21°C° 0 mm 4 mps 756 mmHg 38%
    12:00 +21°C° 0 mm 4 mps 755 mmHg 39%
    13:00 +21°C° 0 mm 4 mps 755 mmHg 40%
    14:00 +21°C° 0 mm 4 mps 754 mmHg 41%
    15:00 +21°C° 0 mm 4 mps 754 mmHg 47%
    16:00 +20°C° 0 mm 3 mps 753 mmHg 53%
    17:00 +19°C° 0 mm 3 mps 753 mmHg 60%
    18:00 +19°C° 0 mm 2 mps 753 mmHg 66%
    19:00 +18°C° 0 mm 2 mps 752 mmHg 71%
    20:00 +17°C° 0 mm 2 mps 752 mmHg 77%
    21:00 +16°C° 0.1 mm 2 mps 752 mmHg 83%
    22:00 +15°C° 0.1 mm 2 mps 752 mmHg 89%
    23:00 +14°C° 0.1 mm 2 mps 751 mmHg 95%

    23 May, Wednesday

    Time Temperature Precipitation Wind Pressure Humidity
    00:00 +14°C° 0 mm 2 mps 751 mmHg 96%
    01:00 +14°C° 0 mm 2 mps 751 mmHg 97%
    02:00 +13°C° 0 mm 2 mps 751 mmHg 98%
    03:00 +12°C° 0 mm 3 mps 751 mmHg 97%
    04:00 +12°C° 0 mm 3 mps 751 mmHg 95%
    05:00 +12°C° 0 mm 3 mps 751 mmHg 94%
    06:00 +13°C° 0 mm 3 mps 751 mmHg 93%
    07:00 +13°C° 0 mm 3 mps 752 mmHg 91%
    08:00 +13°C° 0 mm 3 mps 752 mmHg 90%
    09:00 +14°C° 0 mm 3 mps 752 mmHg 88%
    10:00 +14°C° 0 mm 3 mps 752 mmHg 85%
    11:00 +16°C° 0 mm 2 mps 752 mmHg 83%
    12:00 +17°C° 0 mm 3 mps 752 mmHg 76%
    13:00 +18°C° 0 mm 3 mps 752 mmHg 70%
    14:00 +19°C° 0 mm 3 mps 752 mmHg 63%
    15:00 +20°C° 0 mm 2 mps 752 mmHg 61%
    16:00 +21°C° 0 mm 2 mps 752 mmHg 58%
    17:00 +21°C° 0 mm 2 mps 751 mmHg 55%
    18:00 +19°C° 0 mm 2 mps 751 mmHg 63%
    19:00 +19°C° 0 mm 1 mps 751 mmHg 72%
    20:00 +16°C° 0 mm 1 mps 751 mmHg 80%
    21:00 +15°C° 0.1 mm 1 mps 751 mmHg 83%
    22:00 +15°C° 0.1 mm 1 mps 751 mmHg 87%
    23:00 +14°C° 0.1 mm 1 mps 751 mmHg 90%

    24 May, Thursday

    Time Temperature Precipitation Wind Pressure Humidity
    00:00 +14°C° 0.2 mm 1 mps 751 mmHg 92%
    01:00 +14°C° 0.2 mm 1 mps 751 mmHg 93%
    02:00 +14°C° 0.2 mm 1 mps 751 mmHg 95%
    03:00 +14°C° 0.4 mm 1 mps 751 mmHg 95%
    04:00 +14°C° 0.4 mm 1 mps 751 mmHg 94%
    05:00 +14°C° 0.4 mm 1 mps 751 mmHg 94%
    06:00 +14°C° 1.3 mm 1 mps 751 mmHg 94%
    07:00 +14°C° 1.3 mm 1 mps 751 mmHg 95%
    08:00 +15°C° 1.3 mm 1 mps 751 mmHg 95%
    09:00 +14°C° 1.7 mm 2 mps 751 mmHg 95%
    10:00 +14°C° 1.7 mm 2 mps 751 mmHg 95%
    11:00 +14°C° 1.7 mm 2 mps 751 mmHg 95%
    12:00 +13°C° 1 mm 3 mps 751 mmHg 95%
    13:00 +12°C° 1 mm 4 mps 751 mmHg 94%
    14:00 +10°C° 1 mm 5 mps 752 mmHg 94%
    15:00 +10°C° 0.3 mm 5 mps 752 mmHg 94%
    16:00 +9°C° 0.3 mm 5 mps 752 mmHg 93%
    17:00 +8°C° 0.3 mm 5 mps 752 mmHg 92%
    18:00 +8°C° 0.2 mm 5 mps 753 mmHg 91%
    19:00 +8°C° 0.2 mm 5 mps 753 mmHg 89%
    20:00 +8°C° 0.2 mm 4 mps 753 mmHg 88%
    21:00 +7°C° 0.4 mm 4 mps 754 mmHg 87%
    22:00 +7°C° 0.4 mm 4 mps 754 mmHg 85%
    23:00 +7°C° 0.4 mm 4 mps 754 mmHg 84%

    25 May, Friday

    Time Temperature Precipitation Wind Pressure Humidity
    00:00 +7°C° 0.2 mm 4 mps 755 mmHg 82%
    01:00 +6°C° 0.2 mm 4 mps 755 mmHg 80%
    02:00 +6°C° 0.2 mm 4 mps 755 mmHg 78%
    03:00 +6°C° 0.1 mm 4 mps 756 mmHg 76%
    04:00 +6°C° 0.1 mm 4 mps 756 mmHg 74%
    05:00 +6°C° 0.1 mm 4 mps 756 mmHg 72%
    06:00 +7°C° 0 mm 5 mps 757 mmHg 66%
    07:00 +8°C° 0 mm 5 mps 757 mmHg 60%
    08:00 +10°C° 0 mm 5 mps 758 mmHg 55%
    09:00 +12°C° 0 mm 5 mps 758 mmHg 51%
    10:00 +13°C° 0 mm 5 mps 758 mmHg 47%
    11:00 +14°C° 0 mm 5 mps 758 mmHg 43%
    12:00 +15°C° 0 mm 5 mps 758 mmHg 41%
    13:00 +16°C° 0 mm 5 mps 758 mmHg 39%
    14:00 +17°C° 0 mm 4 mps 758 mmHg 38%
    15:00 +17°C° 0 mm 4 mps 758 mmHg 39%
    16:00 +17°C° 0 mm 4 mps 758 mmHg 40%
    17:00 +15°C° 0 mm 4 mps 759 mmHg 42%
    18:00 +13°C° 0 mm 3 mps 759 mmHg 49%
    19:00 +11°C° 0 mm 3 mps 759 mmHg 57%
    20:00 +9°C° 0 mm 2 mps 759 mmHg 65%
    21:00 +8°C° 0 mm 2 mps 760 mmHg 66%
    22:00 +7°C° 0 mm 2 mps 760 mmHg 67%
    23:00 +6°C° 0 mm 2 mps 761 mmHg 68%
    Show more